Location: USNO
(38.9242°N, 77.0663°W)
Time: 11:59:19
(UTC-05:00)

Vanguard 2 Rocket - Visible Passes

Search period start: 16 December 2017 00:00
Search period end: 26 December 2017 00:00
Orbit: 556 x 3326 km, 32.9° (Epoch: 15 December)

Date Brightness Start Highest point End Pass type
(mag) Time Alt. Az. Time Alt. Az. Time Alt. Az.
16 Dec11.101:04:48SE01:04:48SE00:23:59Wvisible
16 Dec 10.7 03:10:36 11° S 03:10:36 11° S 03:11:00 10° S visible
16 Dec 9.0 18:57:51 10° WSW 19:08:35 61° SSE 19:16:08 37° E visible
16 Dec 9.3 21:10:59 10° W 21:21:56 61° SW 21:21:56 61° SW visible
16 Dec 10.7 23:26:01 10° W 23:27:44 15° W 23:27:44 15° W visible
17 Dec 9.0 17:59:10 10° SW 18:08:17 50° SSE 18:19:54 18° E visible
17 Dec 9.0 20:11:24 10° WSW 20:23:51 70° S 20:25:42 67° SE visible
17 Dec 10.1 22:25:33 10° W 22:31:30 31° W 22:31:30 31° W visible
18 Dec 9.1 17:00:57 10° SSW 17:08:32 38° SE 17:21:01 10° E visible
18 Dec 8.9 19:12:11 10° WSW 19:22:52 67° S 19:29:29 42° ESE visible
18 Dec 9.4 21:25:32 10° W 21:35:17 54° WSW 21:35:17 54° WSW visible
18 Dec 10.8 23:40:48 10° W 23:41:05 11° W 23:41:05 11° W visible
19 Dec 8.8 18:13:20 10° WSW 18:22:24 59° SSE 18:33:16 22° E visible
19 Dec 9.0 20:25:55 10° W 20:38:15 69° S 20:39:04 68° SSE visible
19 Dec 10.3 22:40:13 10° W 22:44:53 26° W 22:44:53 26° W visible
20 Dec 8.8 17:14:50 10° SW 17:22:29 48° SSE 17:35:41 10° E visible
20 Dec 8.8 19:26:40 10° WSW 19:37:16 69° S 19:42:53 47° ESE visible
20 Dec 9.6 21:40:09 10° W 21:48:42 46° WSW 21:48:42 46° WSW visible
21 Dec 8.7 18:27:43 10° WSW 18:36:43 64° S 18:46:44 25° E visible
21 Dec 9.1 20:40:31 10° W 20:52:33 64° SSW 20:52:33 64° SSW visible
21 Dec 10.4 22:55:04 10° W 22:58:21 20° W 22:58:21 20° W visible
22 Dec 8.6 17:29:03 10° WSW 17:36:39 56° SSE 17:50:12 10° E visible
22 Dec 8.8 19:41:13 10° W 19:51:42 67° S 19:56:26 50° SE visible
22 Dec 9.8 21:54:52 10° W 22:02:15 38° WSW 22:02:15 38° WSW visible
23 Dec 8.6 18:42:13 10° WSW 18:51:09 66° S 19:00:23 27° ESE visible
23 Dec 9.2 20:55:10 10° W 21:06:12 56° SSW 21:06:12 56° SSW visible
23 Dec 10.6 23:10:17 10° W 23:12:01 14° W 23:12:01 14° W visible
24 Dec 8.5 17:43:28 10° WSW 17:51:01 61° S 18:04:22 11° E visible
24 Dec 8.9 19:55:50 10° W 20:06:09 61° S 20:10:12 49° SE visible
24 Dec 10.0 22:09:48 10° W 22:16:02 30° WSW 22:16:02 30° WSW visible
25 Dec 8.7 18:56:48 10° W 19:05:37 63° S 19:14:17 28° ESE visible
25 Dec 9.4 21:09:56 10° W 21:20:07 46° SSW 21:20:07 46° SSW visible
